Tracking 19709 objects as of 19-Jun-2019
HD Live streaming from Space Station
objects crossing your sky now

DELTA 1 DEB

Track DELTA 1 DEB now!
10-day predictions


NORAD ID: 7198
Int'l Code: 1973-086FG
Perigee: 1,208.7 km
Apogee: 1,432.7 km
Inclination: 102.4 °
Period: 111.9 minutes
Semi major axis: 7691 km
RCS: 0.0332 m2 (small)
Launch date: November 6, 1973
Source: United States (US)
Launch site: AIR FORCE WESTERN TEST RANGE (AFWTR)

Note: This is SATELLITE DEBRIS
aabbcc
Your satellite tracking list
Your tracking list is empty




NASA's NSSDC Master Catalog

Two Line Element Set (TLE):
1  7198U 73086FG  19169.98915819  .00000370  00000-0  16151-2 0  9991
2  7198 102.3639 175.6315 0145595 238.0772 149.8956 12.86977731129899
Source of the keplerian elements: AFSPC